This is the latest recevied weather packets stored in our database for station/object N1YZ. If no packets are shown the sender has not sent any weather packets the latest 10 day(s).
| Time | Temp. | Humidity | Pressure | Rain* | Wind** | Luminosity | Snow |
|---|---|---|---|---|---|---|---|
| 1777585719 | 19.44° C | 76% | 1031.6 hPa | 0 mm | - | 104 W/m² | - |
| 1777585418 | 20° C | 79% | 1031.9 hPa | 0 mm | - | 89 W/m² | - |
| 1777585113 | 20° C | 74% | 1031.9 hPa | 0 mm | - | 133 W/m² | - |
| 1777584810 | 20° C | 76% | 1031.9 hPa | 0 mm | - | 145 W/m² | - |
| 1777584508 | 20° C | 74% | 1031.9 hPa | 0 mm | - | 115 W/m² | - |
| 1777584205 | 20° C | 74% | 1031.8 hPa | 0 mm | - | 138 W/m² | - |
| 1777583904 | 20° C | 75% | 1032 hPa | 0 mm | - | 145 W/m² | - |
| 1777583600 | 20.56° C | 73% | 1032.2 hPa | 0 mm | - | 126 W/m² | - |
| 1777583299 | 20° C | 72% | 1031.8 hPa | 0 mm | - | 132 W/m² | - |
| 1777582994 | 20.56° C | 74% | 1032.1 hPa | 0 mm | - | 126 W/m² | - |
| 1777582692 | 21.11° C | 73% | 1032.2 hPa | 0 mm | - | 140 W/m² | - |
| 1777582392 | 21.11° C | 67% | 1031.9 hPa | 0 mm | - | 140 W/m² | - |
| 1777582091 | 21.11° C | 61% | 1032 hPa | 0 mm | - | 142 W/m² | - |
| 1777581786 | 21.67° C | 64% | 1032.2 hPa | 0 mm | - | 151 W/m² | - |
| 1777581484 | 21.67° C | 70% | 1032.1 hPa | 0 mm | - | 148 W/m² | - |
| 1777581180 | 21.67° C | 65% | 1031.8 hPa | 0 mm | - | 157 W/m² | - |
| 1777580874 | 21.67° C | 64% | 1032 hPa | 0 mm | - | 232 W/m² | - |
| 1777580569 | 21.11° C | 64% | 1032.3 hPa | 0 mm | - | 396 W/m² | - |
| 1777580265 | 21.11° C | 64% | 1032.2 hPa | 0 mm | - | 179 W/m² | - |
| 1777579963 | 20.56° C | 65% | 1032.4 hPa | 0 mm | - | 342 W/m² | - |
| 1777579657 | 20.56° C | 70% | 1032.4 hPa | 0 mm | - | 240 W/m² | - |
| 1777579356 | 21.11° C | 71% | 1032.3 hPa | 0 mm | - | 157 W/m² | - |
| 1777579052 | 21.11° C | 70% | 1032.3 hPa | 0 mm | - | 231 W/m² | - |
| 1777578747 | 21.67° C | 73% | 1032.4 hPa | 0 mm | - | 254 W/m² | - |
| 1777578447 | 21.67° C | 71% | 1032.5 hPa | 0 mm | - | 213 W/m² | - |
* Rain latest hour (hover to see other rain measurements)
** Current wind speed in m/s (hover to see current wind gust speed)